Temp
23 23 23 23 23 23 23 22 22 22 22 22 22 21 21 21 21 21 21 21 21 20 20 20 20 20 20 20 20 20 20 20 20 20 20 20 20 20 20 20 20 20 20 20 20 20 20 20 20 20 20 19 19 19 19 19 19 19 19 19 19 19 19
23 23 24 23 23 23 23 23 22 22 22 22 22 21 21 21 21 21 21 21 21 21 20 20 20 20 20 20 20 20 20 20 20 20 20 21 21 20 20 20 21 20 20 20 20 20 20 20 20 20 20 20 19 19 19 19 19 19 19 19 19 19 19
23 23 24 24 24 23 23 23 22 22 22 22 22 21 21 21 21 21 21 21 21 21 20 20 20 20 20 20 20 20 20 20 20 20 21 21 21 21 20 20 20 20 20 20 20 20 20 20 20 20 20 20 20 20 20 19 19 19 19 19 19 19 19
24 24 24 24 24 24 23 23 22 22 22 22 22 22 21 21 21 21 21 21 21 21 21 21 21 21 21 21 20 20 20 20 20 21 21 21 21 21 20 20 20 20 20 20 20 20 20 20 20 20 20 20 20 20 20 19 19 19 19 19 19 19 19
25 25 24 24 24 24 24 23 23 22 22 21 22 22 22 22 21 21 21 21 21 21 21 21 21 21 21 21 21 20 21 20 20 20 20 20 20 20 20 20 20 20 20 20 20 20 20 20 20 20 20 20 20 20 20 19 19 19 19 19 19 19 19
25 25 25 24 24 24 24 23 23 22 22 22 22 22 22 22 21 21 21 21 21 21 21 21 21 21 21 21 21 21 21 20 20 20 20 20 20 20 20 20 20 20 20 20 20 20 20 20 20 20 20 20 20 20 20 20 19 19 19 19 19 19 19
25 25 25 25 25 24 24 23 23 22 22 22 22 22 22 21 21 21 21 21 21 21 21 21 21 21 21 21 21 21 21 20 20 20 20 20 20 20 20 20 20 20 20 20 20 20 20 20 20 20 20 20 20 19 20 20 20 19 19 19 19 19 19
26 26 25 25 25 25 24 24 23 23 22 22 21 21 21 21 21 21 21 21 21 21 21 21 21 21 21 21 21 21 20 20 20 20 20 20 20 20 20 20 20 20 20 20 20 20 20 20 20 20 19 19 19 19 19 19 19 19 19 19 19 19 19
26 26 26 25 25 25 24 24 24 23 23 22 22 21 21 21 21 21 21 21 21 21 21 21 21 21 21 21 21 20 20 20 20 20 20 20 20 20 20 20 20 20 20 20 20 20 20 20 20 19 19 19 19 19 19 19 19 19 19 18 19 19 19
25 26 25 25 25 24 24 24 24 23 23 23 22 22 21 21 20 20 20 21 21 21 21 21 21 21 20 20 20 20 20 19 19 19 19 19 20 20 20 19 19 20 20 20 20 20 20 20 20 19 19 19 19 19 19 19 19 19 18 18 19 19 19
24 25 25 25 24 24 24 24 24 23 23 23 22 22 21 20 20 20 20 20 21 21 21 21 20 20 20 20 19 19 19 19 19 19 19 19 20 20 19 19 19 19 20 20 20 20 19 19 19 19 19 19 19 19 19 19 19 19 19 18 19 19 19
24 24 24 24 24 24 24 24 24 23 23 23 22 22 22 21 21 21 20 20 20 20 20 20 20 20 20 19 19 19 19 19 18 19 19 20 20 20 19 19 19 20 20 19 19 19 19 19 19 19 19 19 19 19 19 19 19 19 18 18 18 19 19
24 24 24 23 23 23 23 23 23 23 23 22 22 22 22 21 21 21 21 20 20 20 20 20 20 20 20 19 19 19 19 19 19 19 19 20 20 19 19 20 20 20 20 19 19 19 19 19 19 19 19 18 18 19 19 18 18 18 18 18 18 18 19
24 24 23 23 22 21 22 22 22 23 23 22 22 21 21 21 21 21 21 21 20 20 20 20 20 20 20 20 19 19 19 19 19 19 19 19 19 19 19 20 20 20 19 19 18 18 19 19 18 18 18 18 18 19 19 19 19 19 18 18 18 18 19
23 23 22 22 22 21 21 21 22 22 22 22 22 21 21 21 21 21 21 21 20 20 20 20 20 20 20 20 19 19 19 20 19 19 19 19 19 19 19 19 20 20 19 18 18 18 18 18 18 18 18 18 18 19 19 19 19 19 18 18 18 18 18
22 22 22 22 22 22 22 21 22 22 22 21 21 21 21 21 21 21 21 21 20 20 20 20 21 21 20 20 20 19 19 19 19 19 19 19 19 19 19 20 20 19 18 18 18 18 18 18 18 18 18 18 18 18 19 19 19 18 18 18 18 18 18
21 22 22 22 22 22 22 21 21 22 22 21 20 19 20 21 21 21 20 20 20 20 20 20 21 21 20 20 20 19 19 19 19 19 19 19 19 19 20 19 19 18 17 17 17 18 18 18 18 18 18 18 18 18 18 18 18 18 18 18 18 18 18
20 20 21 22 22 22 21 20 20 21 21 20 19 19 19 20 21 20 20 20 20 20 20 21 21 21 20 20 20 19 19 19 19 19 19 19 19 19 19 18 18 17 17 17 17 17 18 17 17 17 18 18 18 18 18 18 18 18 18 18 18 18 18
19 19 21 22 21 20 20 19 18 20 21 20 19 19 19 19 20 20 21 21 20 20 20 20 20 20 20 20 20 20 19 19 19 19 19 19 18 18 18 17 17 18 18 17 17 17 18 17 18 18 18 18 18 18 18 18 18 18 18 18 18 18 18
19 19 21 21 20 18 19 18 17 19 22 22 21 20 19 19 19 20 21 21 21 20 20 20 20 20 20 20 20 19 19 19 19 19 18 18 18 18 18 18 18 18 18 17 17 18 18 18 18 18 18 18 18 18 18 18 17 17 17 18 18 18 18
18 18 19 20 18 18 19 18 16 18 22 23 22 21 20 19 19 19 20 21 21 21 20 20 20 20 20 20 20 19 19 19 18 18 18 18 18 18 18 18 18 18 18 18 17 17 17 17 18 18 18 18 18 17 17 17 17 17 17 17 17 17 17
18 18 18 18 18 18 18 18 17 19 21 23 23 22 22 21 20 19 19 20 20 21 21 20 19 19 19 19 19 19 19 19 18 18 18 18 18 18 18 18 18 18 18 18 17 17 17 17 17 18 18 18 18 17 17 17 17 17 17 17 17 17 17
18 19 19 18 18 18 18 18 18 19 21 23 23 23 23 22 21 20 19 19 20 20 20 20 20 19 19 19 19 19 19 19 19 18 18 18 18 18 18 18 18 18 18 18 18 17 17 17 17 17 17 17 17 17 17 17 17 17 17 17 17 17 17
18 19 19 19 19 19 19 19 19 19 21 23 24 23 23 22 22 21 19 19 20 20 20 20 20 19 19 19 18 18 19 18 18 19 18 19 19 18 18 18 18 18 18 18 18 18 18 18 17 17 17 17 17 17 17 17 17 17 17 16 16 16 16
18 19 19 19 19 19 19 20 21 20 20 22 23 23 23 22 22 22 20 19 19 20 20 20 20 19 19 19 18 19 19 18 18 19 18 18 19 19 19 18 18 18 18 18 18 18 18 17 17 17 17 17 17 17 17 17 17 16 16 16 16 16 16
18 18 18 18 19 20 20 20 21 21 21 21 22 22 22 22 22 21 20 18 19 19 19 19 19 19 19 19 18 19 19 18 18 18 18 18 18 18 18 18 18 18 18 18 18 18 18 17 17 17 17 17 17 17 16 16 16 16 16 16 15 16 16
18 18 18 18 18 19 20 19 20 21 21 21 21 22 22 22 21 21 20 18 18 19 20 19 19 19 19 18 18 18 18 18 18 18 18 18 18 18 18 18 17 17 17 17 17 17 17 17 17 17 17 17 17 16 16 16 16 15 15 15 15 16 16
17 17 17 18 18 19 19 18 19 20 20 20 21 21 21 21 21 20 20 19 18 19 20 19 19 19 18 18 18 18 18 18 17 17 17 17 18 17 17 17 17 17 17 17 17 16 16 16 16 16 16 16 16 16 15 15 15 15 15 15 15 15 16
17 17 17 17 18 18 17 17 18 19 19 20 20 21 21 21 20 20 19 19 19 18 19 19 19 18 18 18 18 18 18 17 17 17 17 17 17 17 17 17 17 17 17 16 16 16 16 16 16 15 15 15 15 15 15 15 14 14 15 15 15 15 16
17 17 17 17 17 17 17 17 17 17 19 20 20 21 21 21 21 20 20 20 19 18 18 19 19 18 18 18 18 18 17 17 17 17 17 17 17 17 17 17 17 17 16 16 16 16 16 16 16 15 15 15 15 15 15 15 14 14 14 14 15 15 15
17 17 17 17 17 17 17 17 16 17 18 20 20 21 20 20 20 20 20 21 20 18 18 18 18 18 18 18 18 17 17 17 17 17 17 17 17 17 17 17 17 16 16 16 17 17 17 16 16 16 15 15 15 15 14 14 14 14 13 13 14 14 15
17 17 17 17 17 17 17 17 16 16 17 19 20 20 20 19 19 20 20 20 19 18 18 19 18 18 18 18 17 17 17 17 17 17 17 17 17 17 17 17 17 17 17 17 17 18 17 17 17 16 15 15 15 15 14 14 14 14 13 13 13 14 14
17 17 17 17 17 17 17 17 17 16 17 17 18 18 18 19 19 19 20 19 18 17 18 19 18 18 18 17 17 17 17 17 17 17 17 17 18 18 17 18 18 18 18 19 18 18 18 17 17 16 15 15 15 15 15 15 15 14 14 14 14 14 14
17 16 17 17 17 17 17 17 17 16 16 17 17 17 17 18 19 20 20 19 18 17 18 18 19 19 18 18 18 17 17 17 17 17 17 17 17 17 18 19 20 20 20 20 20 20 19 18 17 16 16 15 15 15 15 15 15 15 15 15 15 15 15
17 16 16 17 17 17 17 17 17 16 16 17 17 17 18 18 19 19 18 18 18 18 17 18 18 19 19 18 18 18 17 17 17 17 17 17 17 17 18 19 20 20 21 21 21 21 21 20 19 18 17 17 16 16 16 16 15 15 16 16 16 16 15
17 17 17 17 17 17 17 17 17 17 17 17 17 17 17 18 18 17 16 16 16 16 17 18 18 18 18 19 18 18 18 17 17 17 17 17 17 17 17 18 19 19 20 21 21 21 22 21 21 20 19 19 18 17 17 17 16 16 16 16 16 16 16
17 17 17 17 17 17 17 17 17 17 17 17 17 17 16 17 18 17 17 16 16 16 17 18 18 18 18 18 18 19 19 18 18 17 17 17 17 17 17 17 18 18 19 19 20 20 21 21 21 21 21 20 20 19 18 18 17 17 16 16 17 17 16
16 17 17 17 17 17 17 17 18 17 17 17 17 17 17 17 17 17 17 17 16 16 16 17 17 18 18 18 18 18 18 18 18 18 17 17 17 17 17 17 18 18 18 18 18 19 20 20 21 21 21 21 20 20 20 19 18 18 17 17 17 17 17
Height
1489 1492 1494 1495 1497 1499 1501 1503 1505 1507 1509 1511 1513 1515 1518 1519 1521 1523 1525 1526 1528 1529 1531 1532 1534 1535 1537 1538 1540 1541 1543 1544 1546 1547 1548 1549 1550 1551 1552 1553 1554 1555 1556 1556 1557 1558 1559 1559 1560 1560 1561 1561 1561 1562 1562 1562 1563 1563 1563 1564 1564 1565 1565
1488 1490 1491 1493 1495 1497 1499 1501 1503 1505 1508 1510 1513 1515 1516 1518 1519 1521 1523 1524 1526 1527 1529 1530 1532 1534 1535 1536 1538 1539 1541 1542 1544 1545 1546 1547 1548 1549 1550 1551 1552 1553 1554 1555 1556 1556 1557 1558 1558 1558 1559 1559 1559 1560 1560 1561 1561 1561 1562 1562 1563 1563 1564
1487 1489 1489 1491 1493 1495 1497 1499 1501 1504 1506 1509 1512 1514 1516 1517 1518 1519 1521 1522 1524 1525 1527 1528 1530 1532 1533 1534 1536 1538 1539 1540 1542 1543 1544 1545 1546 1548 1549 1550 1550 1551 1552 1553 1553 1554 1554 1555 1556 1556 1556 1556 1557 1558 1558 1559 1559 1560 1560 1561 1561 1562 1562
1486 1487 1489 1491 1492 1494 1496 1498 1500 1503 1505 1509 1511 1514 1515 1516 1517 1518 1519 1520 1521 1523 1524 1526 1528 1529 1531 1532 1534 1536 1537 1538 1540 1541 1542 1543 1544 1546 1547 1548 1549 1549 1550 1551 1551 1552 1552 1553 1553 1553 1554 1554 1555 1555 1556 1556 1557 1558 1559 1559 1560 1560 1560
1486 1487 1489 1491 1491 1494 1495 1496 1499 1500 1502 1504 1505 1508 1510 1511 1513 1514 1516 1517 1519 1521 1522 1524 1525 1527 1529 1530 1531 1533 1535 1536 1538 1539 1541 1542 1543 1544 1544 1545 1546 1547 1548 1549 1549 1550 1550 1550 1550 1551 1551 1552 1552 1553 1553 1554 1555 1556 1557 1557 1558 1558 1559
1485 1486 1488 1489 1490 1492 1493 1494 1495 1495 1496 1496 1496 1498 1500 1504 1508 1510 1513 1515 1516 1519 1521 1522 1523 1524 1526 1528 1529 1531 1532 1534 1535 1537 1538 1540 1541 1542 1542 1543 1544 1545 1546 1547 1547 1548 1548 1548 1548 1548 1548 1549 1550 1550 1551 1551 1552 1553 1554 1555 1556 1556 1557
1485 1486 1487 1488 1489 1490 1490 1492 1493 1494 1495 1496 1497 1499 1500 1502 1505 1507 1510 1512 1514 1517 1518 1520 1521 1522 1524 1526 1527 1528 1529 1531 1532 1534 1536 1537 1538 1539 1540 1542 1542 1543 1544 1545 1545 1546 1546 1545 1545 1545 1546 1546 1547 1548 1549 1549 1550 1551 1552 1553 1553 1554 1554
1486 1486 1487 1488 1488 1488 1489 1491 1493 1494 1495 1497 1499 1501 1501 1502 1504 1506 1508 1510 1513 1515 1516 1518 1519 1520 1521 1523 1524 1525 1526 1528 1530 1531 1533 1534 1536 1537 1538 1539 1540 1541 1542 1542 1543 1543 1543 1543 1543 1543 1544 1545 1546 1547 1547 1548 1548 1549 1550 1550 1551 1551 1552
1487 1486 1486 1487 1487 1487 1489 1491 1492 1493 1495 1498 1500 1500 1501 1502 1504 1505 1507 1509 1511 1513 1514 1516 1517 1518 1519 1520 1521 1522 1524 1526 1527 1528 1530 1531 1533 1535 1536 1537 1538 1539 1540 1540 1540 1541 1541 1541 1541 1542 1543 1543 1544 1544 1545 1546 1547 1548 1548 1549 1549 1549 1550
1487 1487 1486 1486 1487 1488 1489 1490 1491 1493 1494 1496 1498 1500 1502 1504 1505 1505 1506 1508 1510 1511 1513 1514 1515 1516 1517 1518 1519 1520 1522 1524 1525 1526 1527 1529 1531 1532 1533 1535 1535 1536 1537 1538 1538 1539 1539 1539 1539 1540 1540 1541 1541 1542 1543 1544 1545 1546 1547 1547 1548 1547 1548
1489 1488 1487 1487 1488 1489 1490 1489 1490 1492 1493 1495 1497 1499 1502 1504 1506 1506 1507 1508 1509 1510 1511 1512 1513 1514 1515 1516 1517 1519 1522 1523 1523 1524 1525 1526 1527 1529 1530 1532 1533 1534 1534 1535 1536 1536 1537 1537 1537 1537 1537 1538 1539 1540 1541 1542 1543 1544 1545 1546 1546 1546 1546
1491 1490 1489 1489 1489 1489 1488 1489 1490 1492 1493 1495 1497 1498 1500 1503 1505 1506 1507 1508 1508 1509 1510 1510 1511 1512 1513 1514 1515 1519 1521 1520 1520 1522 1522 1523 1524 1525 1527 1528 1529 1530 1531 1532 1533 1534 1534 1534 1534 1535 1535 1536 1537 1538 1539 1539 1540 1542 1543 1544 1544 1544 1544
1492 1490 1491 1491 1490 1489 1488 1488 1490 1491 1493 1496 1497 1498 1499 1501 1503 1505 1506 1506 1507 1508 1509 1509 1510 1510 1511 1512 1513 1515 1516 1516 1517 1518 1519 1520 1521 1522 1523 1524 1526 1527 1528 1530 1530 1531 1531 1532 1532 1533 1533 1534 1535 1536 1536 1537 1538 1539 1540 1541 1542 1542 1542
1491 1491 1492 1492 1492 1491 1489 1489 1490 1491 1492 1494 1496 1499 1500 1501 1503 1504 1505 1505 1506 1508 1509 1509 1509 1509 1509 1510 1511 1512 1513 1513 1514 1515 1516 1518 1518 1519 1520 1522 1523 1524 1526 1527 1528 1528 1529 1529 1530 1531 1531 1532 1532 1533 1534 1534 1535 1536 1537 1539 1540 1541 1541
1491 1491 1492 1492 1491 1490 1491 1491 1492 1492 1493 1494 1496 1498 1500 1501 1502 1504 1505 1506 1506 1508 1509 1509 1509 1509 1509 1509 1509 1510 1511 1512 1512 1513 1514 1515 1515 1517 1519 1520 1521 1522 1523 1524 1525 1526 1526 1527 1528 1528 1529 1529 1530 1530 1531 1531 1533 1534 1535 1537 1538 1539 1539
1492 1492 1493 1492 1489 1489 1490 1491 1492 1493 1494 1495 1497 1499 1500 1501 1502 1503 1505 1506 1507 1509 1510 1510 1510 1509 1509 1509 1509 1510 1510 1511 1511 1511 1512 1512 1514 1516 1517 1518 1519 1520 1521 1522 1523 1523 1524 1525 1525 1526 1527 1527 1527 1528 1529 1529 1531 1532 1534 1535 1536 1537 1538
1493 1492 1493 1492 1490 1489 1489 1491 1493 1494 1494 1496 1498 1500 1501 1502 1503 1504 1505 1507 1508 1510 1511 1512 1511 1511 1510 1510 1511 1511 1510 1510 1511 1511 1511 1512 1513 1514 1515 1516 1518 1519 1520 1520 1520 1521 1522 1523 1523 1524 1525 1526 1526 1527 1528 1529 1530 1531 1533 1534 1535 1536 1536
1493 1492 1492 1492 1492 1492 1493 1495 1496 1495 1495 1496 1498 1500 1502 1503 1503 1504 1505 1507 1509 1511 1512 1513 1513 1512 1512 1512 1512 1511 1511 1511 1511 1511 1511 1512 1512 1513 1514 1516 1517 1517 1518 1518 1518 1519 1520 1521 1522 1522 1524 1525 1525 1526 1527 1528 1530 1531 1532 1533 1534 1535 1535
1495 1494 1492 1492 1494 1496 1496 1497 1497 1496 1494 1495 1497 1499 1501 1503 1504 1505 1506 1507 1509 1511 1513 1513 1513 1513 1513 1513 1513 1513 1512 1512 1512 1511 1511 1511 1512 1512 1513 1514 1515 1515 1516 1516 1517 1518 1519 1520 1521 1521 1522 1523 1524 1525 1526 1528 1529 1530 1531 1532 1533 1534 1534
1497 1495 1493 1492 1495 1497 1498 1498 1497 1495 1491 1492 1495 1496 1498 1501 1504 1505 1506 1507 1508 1510 1512 1513 1514 1514 1514 1513 1514 1513 1513 1513 1512 1511 1511 1511 1511 1512 1511 1512 1513 1513 1514 1515 1516 1517 1518 1519 1519 1520 1522 1523 1523 1524 1525 1527 1528 1529 1530 1531 1531 1532 1532
1498 1496 1495 1493 1493 1494 1495 1495 1494 1492 1491 1491 1493 1494 1496 1498 1501 1504 1505 1506 1507 1508 1510 1512 1514 1514 1514 1513 1513 1513 1513 1513 1512 1511 1511 1510 1511 1511 1511 1511 1511 1512 1513 1514 1515 1516 1517 1517 1518 1519 1520 1522 1522 1523 1524 1526 1527 1527 1528 1529 1529 1530 1531
1500 1498 1497 1495 1494 1492 1492 1491 1490 1489 1489 1490 1490 1492 1494 1495 1498 1502 1504 1505 1506 1507 1509 1511 1512 1513 1514 1513 1512 1512 1512 1512 1512 1511 1511 1510 1510 1510 1510 1510 1511 1511 1512 1513 1514 1515 1516 1517 1517 1518 1519 1521 1522 1523 1524 1525 1525 1526 1527 1527 1528 1528 1529
1501 1500 1498 1498 1497 1495 1493 1491 1489 1488 1488 1488 1489 1490 1491 1493 1496 1499 1502 1505 1506 1506 1507 1508 1509 1511 1513 1513 1513 1512 1512 1512 1511 1511 1510 1510 1509 1509 1509 1509 1510 1510 1511 1512 1513 1514 1515 1516 1517 1518 1518 1519 1521 1521 1522 1523 1524 1525 1525 1526 1526 1527 1527
1503 1501 1499 1497 1496 1494 1492 1491 1489 1488 1486 1487 1489 1489 1490 1491 1493 1497 1501 1504 1505 1506 1507 1507 1507 1509 1511 1512 1513 1513 1513 1513 1512 1511 1510 1509 1508 1508 1507 1508 1508 1509 1509 1510 1511 1512 1513 1514 1515 1517 1517 1518 1519 1520 1521 1522 1522 1523 1523 1524 1524 1524 1524
1504 1501 1500 1497 1494 1493 1491 1490 1489 1488 1486 1486 1488 1489 1491 1492 1493 1495 1499 1502 1505 1507 1507 1506 1507 1508 1510 1512 1513 1514 1514 1514 1512 1511 1509 1508 1507 1506 1506 1506 1507 1507 1508 1509 1509 1510 1512 1512 1513 1514 1515 1516 1518 1518 1519 1520 1520 1521 1521 1521 1521 1521 1521
1504 1502 1500 1497 1494 1491 1490 1489 1488 1488 1487 1487 1488 1489 1492 1495 1495 1495 1498 1502 1505 1506 1506 1507 1508 1508 1510 1512 1512 1513 1514 1514 1512 1510 1509 1508 1507 1506 1506 1506 1506 1507 1507 1507 1508 1509 1509 1510 1510 1511 1512 1514 1515 1515 1516 1517 1517 1518 1518 1518 1518 1518 1517
1506 1503 1500 1498 1495 1491 1489 1488 1488 1488 1488 1489 1489 1489 1493 1497 1498 1498 1499 1501 1504 1505 1506 1507 1508 1509 1510 1511 1512 1513 1513 1513 1512 1510 1508 1508 1507 1507 1507 1507 1507 1507 1507 1507 1507 1508 1508 1508 1508 1509 1510 1511 1512 1513 1513 1514 1515 1515 1515 1515 1515 1515 1514
1506 1504 1502 1500 1497 1493 1490 1488 1487 1487 1487 1488 1489 1491 1493 1496 1499 1500 1501 1502 1503 1505 1507 1508 1508 1509 1510 1510 1511 1512 1512 1513 1512 1510 1509 1508 1507 1506 1507 1507 1508 1508 1508 1508 1508 1507 1508 1508 1508 1508 1509 1510 1510 1511 1512 1512 1513 1513 1513 1513 1513 1512 1512
1506 1504 1503 1501 1498 1495 1492 1490 1488 1488 1487 1487 1489 1493 1495 1496 1498 1500 1502 1503 1503 1505 1508 1508 1508 1509 1509 1509 1509 1510 1511 1512 1512 1511 1509 1508 1507 1506 1506 1506 1507 1507 1507 1508 1507 1507 1507 1508 1508 1508 1508 1509 1509 1510 1511 1511 1512 1512 1512 1512 1512 1511 1511
1506 1504 1503 1501 1499 1497 1496 1494 1491 1489 1488 1487 1489 1493 1495 1497 1499 1500 1500 1502 1504 1505 1506 1508 1509 1509 1509 1509 1509 1508 1509 1510 1510 1511 1510 1508 1507 1506 1505 1505 1506 1506 1506 1506 1506 1506 1506 1507 1507 1507 1507 1508 1508 1509 1510 1511 1511 1511 1511 1511 1511 1511 1511
1507 1505 1503 1502 1500 1498 1497 1496 1494 1491 1489 1487 1489 1493 1495 1497 1498 1497 1497 1501 1504 1504 1504 1506 1508 1509 1509 1509 1509 1509 1508 1508 1508 1508 1508 1507 1506 1505 1504 1504 1504 1504 1505 1505 1504 1504 1504 1505 1505 1506 1506 1506 1507 1508 1509 1510 1510 1510 1511 1510 1511 1510 1510
1507 1505 1503 1502 1500 1497 1496 1496 1495 1493 1490 1487 1488 1492 1495 1497 1498 1496 1497 1500 1502 1503 1504 1505 1506 1507 1509 1509 1509 1510 1509 1508 1507 1506 1505 1504 1504 1503 1502 1502 1502 1502 1503 1503 1503 1503 1503 1503 1503 1504 1504 1505 1505 1506 1507 1508 1509 1509 1509 1509 1509 1509 1509
1507 1506 1504 1501 1499 1497 1496 1496 1497 1497 1494 1490 1490 1491 1494 1496 1496 1496 1498 1500 1502 1502 1503 1504 1504 1506 1507 1509 1509 1510 1509 1508 1507 1506 1505 1504 1502 1501 1500 1499 1499 1500 1500 1501 1501 1501 1501 1502 1502 1502 1503 1503 1504 1505 1506 1507 1507 1508 1508 1508 1508 1508 1508
1508 1506 1505 1502 1499 1498 1496 1495 1496 1497 1496 1494 1494 1494 1495 1496 1497 1498 1500 1502 1503 1502 1501 1501 1502 1503 1505 1507 1508 1509 1509 1508 1508 1507 1506 1505 1503 1502 1500 1498 1498 1498 1498 1499 1499 1500 1500 1501 1501 1501 1502 1503 1504 1504 1505 1506 1506 1507 1507 1507 1507 1507 1507
1507 1507 1506 1503 1500 1498 1497 1497 1497 1496 1496 1494 1494 1495 1496 1496 1497 1499 1502 1503 1504 1502 1499 1498 1498 1499 1501 1504 1505 1507 1508 1508 1508 1507 1507 1506 1505 1503 1501 1500 1499 1498 1498 1498 1498 1498 1499 1499 1500 1501 1502 1502 1503 1504 1504 1505 1506 1506 1506 1506 1506 1506 1507
1506 1506 1505 1503 1500 1498 1497 1497 1496 1494 1494 1494 1494 1494 1495 1495 1496 1499 1501 1502 1501 1500 1497 1496 1495 1496 1498 1500 1502 1504 1505 1506 1506 1507 1507 1506 1505 1503 1502 1500 1499 1498 1498 1497 1497 1498 1498 1498 1499 1500 1501 1501 1502 1503 1504 1504 1505 1505 1505 1505 1505 1506 1506
1504 1504 1503 1503 1501 1498 1496 1495 1492 1490 1491 1492 1494 1495 1495 1495 1495 1496 1498 1500 1499 1498 1496 1493 1492 1492 1494 1496 1498 1501 1502 1503 1504 1505 1505 1505 1504 1503 1502 1500 1499 1497 1497 1496 1496 1497 1497 1498 1498 1499 1499 1500 1501 1502 1503 1503 1503 1504 1504 1504 1505 1505 1505
1502 1502 1502 1501 1500 1498 1496 1494 1491 1489 1488 1489 1491 1493 1494 1495 1495 1494 1494 1496 1497 1496 1494 1492 1490 1489 1491 1493 1495 1498 1499 1501 1502 1502 1502 1503 1502 1502 1501 1500 1499 1498 1497 1496 1495 1495 1496 1496 1497 1498 1499 1499 1500 1501 1501 1502 1502 1502 1503 1503 1504 1504 1505
Wind_Speed
26 26 27 27 27 28 27 28 32 34 32 30 31 32 33 33 32 32 31 31 31 30 29 28 28 29 30 29 26 25 26 26 27 29 30 30 29 28 27 26 27 27 26 26 25 24 23 22 21 20 19 18 17 17 17 17 17 16 16 15 15 15 16
25 25 25 26 27 28 28 28 31 34 33 31 31 33 35 34 32 32 30 30 31 30 29 28 27 28 29 29 27 24 24 25 26 27 28 28 26 25 25 23 22 23 23 23 22 21 20 20 20 20 21 20 19 19 18 18 18 18 17 16 16 16 16
24 25 25 25 27 27 27 28 31 34 35 33 32 33 35 34 33 32 30 30 30 30 29 28 26 26 27 28 27 25 24 24 25 26 26 25 24 24 23 22 21 20 20 19 19 19 19 18 18 19 19 20 20 19 19 18 18 18 18 17 17 18 18
23 24 24 24 25 26 26 26 29 33 34 33 31 31 33 34 33 33 31 31 30 30 30 29 27 25 25 26 27 25 24 24 24 24 23 23 22 21 22 22 21 21 20 19 19 19 18 18 18 18 18 19 19 19 19 18 17 18 18 18 18 18 18
22 22 24 25 25 26 26 26 28 32 35 35 34 33 34 35 35 35 33 32 31 30 28 27 27 27 25 25 26 25 24 23 23 23 22 22 21 21 21 21 21 21 20 19 19 19 18 18 19 19 19 19 19 19 19 19 18 18 18 18 17 17 18
23 23 24 25 26 26 26 26 28 32 36 39 39 38 37 38 38 37 35 34 32 30 27 26 27 28 27 25 25 25 24 23 23 22 22 21 21 21 20 19 20 20 20 19 19 19 19 19 19 20 20 20 20 20 20 19 19 18 17 17 17 17 18
23 25 25 25 26 27 27 27 29 32 35 38 38 38 38 38 37 36 36 35 33 31 28 27 27 29 28 26 26 26 25 24 23 22 22 22 22 21 20 20 20 19 19 19 19 20 20 21 21 21 21 22 22 21 20 20 20 19 17 17 17 16 16
16 22 25 26 27 27 27 27 28 30 32 35 36 36 36 38 37 36 36 35 33 31 29 27 27 28 28 27 27 28 27 25 24 23 23 22 22 21 21 20 20 19 19 19 20 20 21 22 23 23 23 23 23 22 21 21 20 19 18 18 16 15 16
6 13 20 25 27 27 26 25 26 27 28 30 33 34 35 37 37 36 36 35 33 31 30 29 27 27 28 28 28 28 28 26 25 24 24 22 21 20 20 21 20 19 19 19 19 20 21 22 23 23 23 23 23 23 22 23 22 21 20 19 18 17 17
4 6 13 20 23 24 23 23 24 25 25 26 29 31 32 35 36 36 35 34 33 32 30 29 28 27 28 29 29 30 29 27 26 25 24 22 20 19 20 21 20 20 19 19 20 20 21 22 22 22 23 23 23 22 22 23 24 23 22 21 20 19 17
6 6 9 13 18 20 22 23 24 23 23 24 25 26 28 32 33 34 33 32 32 31 29 28 27 26 26 29 31 31 30 28 27 26 24 22 20 19 20 20 20 19 20 20 21 21 21 22 22 22 23 23 23 21 20 21 23 24 23 21 20 18 16
6 5 6 10 14 19 21 22 22 21 20 21 22 22 23 27 30 30 30 30 30 29 27 26 25 24 24 28 29 27 27 27 26 24 22 21 20 20 20 21 20 20 20 20 21 21 21 22 22 23 23 23 21 20 19 20 21 22 21 19 18 17 16
2 2 4 8 14 18 21 22 22 20 18 19 21 20 19 21 25 27 27 29 29 28 26 24 23 22 23 26 26 25 25 25 24 23 22 21 21 21 21 21 21 21 20 20 20 21 21 21 21 22 21 21 20 19 19 20 20 20 19 18 18 18 17
3 2 3 6 11 15 19 21 21 18 18 19 20 19 18 17 19 20 22 24 26 27 25 23 22 22 23 24 24 24 23 23 22 22 22 23 23 22 21 21 21 21 20 20 22 22 21 20 20 19 18 18 18 18 19 20 20 19 18 19 19 19 17
4 4 1 3 7 11 14 17 19 19 19 19 18 18 16 14 15 15 16 19 22 24 23 22 22 22 22 21 22 22 22 21 21 21 21 21 21 21 21 22 22 21 20 21 23 23 21 19 19 18 17 18 18 18 19 20 18 17 17 19 19 17 15
8 8 5 4 6 8 10 13 16 17 17 16 15 15 13 11 12 13 14 16 19 21 21 21 22 21 19 18 19 20 20 19 19 19 19 20 20 20 21 22 21 21 20 21 22 21 20 19 19 19 19 19 19 20 20 18 17 16 17 17 16 15 14
11 11 10 9 7 7 8 11 13 12 12 12 11 11 10 9 10 12 14 16 18 20 21 21 21 19 17 16 16 17 18 16 16 17 18 19 20 19 20 20 19 19 18 19 19 19 18 18 18 18 18 18 19 19 18 17 16 16 15 15 14 13 12
15 14 13 12 10 6 4 4 5 5 5 6 6 7 8 8 10 11 13 15 18 20 21 21 19 17 16 16 15 16 16 15 15 16 18 18 18 18 18 17 16 16 15 15 15 15 15 15 15 15 15 16 16 16 16 15 15 14 14 14 13 13 12
18 18 14 12 12 12 11 11 9 4 2 3 5 6 8 10 11 12 12 14 17 19 20 21 19 18 17 16 15 15 15 15 15 15 15 16 16 16 15 13 12 12 11 11 10 11 11 11 11 12 13 14 14 14 14 13 13 12 12 12 13 13 13
19 19 16 15 18 17 15 17 16 8 2 3 6 7 7 10 13 14 13 14 16 18 20 21 20 19 18 16 15 15 15 15 15 14 14 15 14 12 11 10 10 10 9 9 9 10 11 11 11 12 12 12 12 11 11 11 10 10 11 12 12 13 13
19 20 18 20 25 24 19 21 20 11 4 4 7 9 8 8 13 16 15 14 15 17 19 21 22 21 19 18 17 17 17 17 16 15 14 13 12 11 10 10 10 9 9 9 10 11 11 10 9 9 9 9 8 7 7 8 9 10 10 11 11 12 12
19 20 21 22 27 26 22 22 19 11 5 2 7 9 9 8 10 15 17 16 16 17 19 21 22 22 21 21 20 20 20 20 18 16 15 13 12 12 12 12 11 10 11 11 11 11 10 9 8 8 9 8 7 7 8 9 9 10 11 11 11 11 12
19 21 22 24 26 25 19 18 17 8 2 2 7 10 10 11 10 12 17 18 18 18 20 22 23 24 23 23 23 23 22 21 19 17 16 14 13 13 13 13 13 13 13 13 13 12 10 10 9 9 9 9 8 9 10 11 11 11 12 12 13 14 15
18 20 22 24 26 24 18 15 15 8 2 6 8 11 11 12 14 13 15 19 19 20 22 23 24 25 25 24 24 23 22 21 19 18 17 15 14 14 15 15 14 14 14 13 13 12 11 11 11 11 11 11 11 11 12 13 13 14 14 15 16 17 18
19 20 22 24 25 24 20 14 12 9 2 8 10 12 11 12 15 16 16 18 20 22 23 24 25 25 25 24 23 22 21 20 19 18 18 17 17 16 16 16 16 15 14 13 12 12 12 13 14 15 15 15 15 15 15 16 16 16 16 17 18 19 19
20 19 20 25 25 23 23 16 9 8 5 7 13 12 10 12 15 16 16 17 21 24 25 25 25 24 23 23 22 21 21 20 20 20 19 19 18 17 17 16 16 15 14 13 13 12 13 15 16 18 18 18 17 17 17 17 17 16 17 17 17 18 18
19 17 19 24 25 23 22 15 6 6 7 9 14 14 11 12 16 17 17 18 22 26 26 24 23 23 23 22 21 20 21 21 21 21 21 19 18 17 16 15 14 13 12 12 12 12 12 14 15 16 16 15 14 14 13 14 14 14 15 16 16 17 16
17 16 17 20 23 23 18 10 4 4 7 9 11 13 13 12 15 18 19 21 24 26 25 23 23 23 23 22 21 21 21 21 21 21 20 19 17 17 16 14 13 12 12 11 11 10 11 13 13 13 13 12 11 10 10 11 12 13 14 14 14 13 11
17 15 16 18 22 23 15 8 6 1 6 8 7 8 10 13 14 16 20 24 25 26 25 23 23 23 23 22 22 22 21 21 21 21 20 19 18 16 16 15 14 13 12 11 11 10 11 13 14 13 12 12 12 11 11 10 9 8 8 9 9 8 5
18 16 15 16 19 21 16 10 10 7 2 6 8 9 12 16 16 16 21 25 26 26 25 24 23 23 23 23 23 23 23 22 22 21 20 19 18 17 16 15 15 13 13 12 11 11 13 14 15 15 14 13 13 11 9 6 4 3 4 5 5 5 3
16 15 15 15 16 19 18 14 11 7 5 8 10 12 15 18 18 19 22 25 26 26 25 24 23 23 24 24 24 24 24 24 23 22 21 20 19 17 16 15 15 14 13 12 11 12 14 15 16 16 14 13 11 9 6 4 3 3 4 5 5 4 3
12 13 17 18 15 16 17 16 13 8 3 8 11 14 17 20 22 23 24 26 28 27 25 23 23 24 25 25 25 25 25 25 25 24 22 21 19 17 15 14 14 14 13 11 11 11 13 14 15 14 12 11 9 7 4 2 3 5 6 6 5 3 2
11 10 15 19 17 14 13 15 15 10 3 4 10 15 19 23 25 25 25 26 27 27 27 25 23 23 24 25 25 25 25 26 25 25 23 20 18 16 14 13 11 10 9 9 9 9 11 12 12 11 10 9 8 5 2 0 3 4 5 6 5 3 2
12 9 11 15 17 13 10 13 16 12 7 2 2 7 13 18 21 21 23 26 27 27 27 26 23 21 20 22 23 24 24 24 24 24 22 20 17 15 13 11 10 9 8 6 5 5 6 7 8 8 8 8 7 6 4 2 3 3 3 3 3 1 2
13 12 10 12 15 15 12 12 15 16 11 7 5 5 6 10 15 18 21 26 31 31 30 27 24 20 19 19 20 21 23 23 23 22 21 19 17 15 11 10 10 8 7 7 6 5 5 5 5 6 7 7 7 5 4 2 2 3 3 4 3 1 1
15 15 13 11 13 16 15 13 14 15 14 9 6 7 7 5 8 14 18 22 27 31 32 30 26 21 19 19 19 19 20 21 23 22 21 19 18 15 13 12 11 9 7 6 6 5 5 4 4 4 4 5 6 5 4 2 1 1 3 4 4 3 2
16 18 14 11 11 13 15 16 16 15 14 12 10 10 9 7 6 9 13 17 21 25 29 30 27 22 19 18 18 18 17 18 20 21 20 20 18 15 13 11 10 9 8 7 6 5 4 3 3 3 2 3 4 4 4 3 2 2 3 4 4 4 3
17 16 13 11 11 13 14 16 17 16 14 13 14 15 14 11 8 7 8 11 16 19 22 25 25 22 20 19 18 18 17 16 17 18 20 20 20 17 14 13 11 9 8 7 7 6 5 4 3 2 2 2 3 4 4 4 4 4 4 4 5 5 5
Wind_Direction
196 200 203 204 207 208 209 207 202 201 201 201 203 204 204 204 204 205 208 210 212 213 214 217 219 220 220 221 221 220 220 219 215 214 216 217 219 221 222 221 221 225 229 233 237 241 244 247 249 249 246 243 244 247 250 252 255 257 256 256 256 258 261
193 199 204 207 207 207 208 207 204 203 203 203 204 206 206 207 206 207 209 211 213 215 216 217 218 219 219 220 222 222 221 220 217 216 217 219 221 223 225 226 225 225 228 232 234 237 240 242 245 247 247 247 247 248 247 247 252 255 253 253 256 260 264
194 200 206 209 209 209 208 206 206 205 205 206 207 208 208 209 211 211 211 212 214 216 217 219 220 219 219 220 221 223 223 222 219 217 218 221 223 224 226 228 229 228 231 234 235 237 240 243 245 245 245 248 249 249 249 248 252 253 249 250 255 260 264
200 204 209 212 212 212 211 208 207 206 206 208 209 210 211 212 213 214 216 216 216 217 218 219 220 219 218 219 220 222 222 222 221 220 221 222 224 227 229 229 230 232 233 236 239 241 243 245 244 242 240 242 245 247 249 252 252 249 247 250 254 257 260
203 207 209 211 213 214 214 211 208 206 206 207 207 209 213 215 214 215 217 218 219 219 219 220 221 220 219 219 221 222 221 222 223 223 223 224 225 228 231 230 231 232 234 237 240 241 242 242 241 239 237 238 242 245 248 250 249 246 247 251 255 257 258
202 206 209 212 215 216 217 214 209 207 208 209 209 210 211 212 213 214 215 217 218 219 219 221 222 221 219 218 220 221 220 222 223 223 224 225 227 230 230 229 229 232 235 237 239 240 240 240 239 238 238 239 241 242 244 246 244 244 248 253 258 260 261
204 208 211 215 218 218 217 215 212 211 212 213 214 212 209 209 212 214 215 216 218 219 220 221 222 221 220 218 218 220 220 220 221 222 223 225 228 230 228 228 229 231 235 236 237 239 239 240 240 239 240 241 242 243 244 244 244 244 248 253 258 262 266
214 215 216 217 220 219 216 214 215 216 216 215 215 213 209 208 210 214 216 217 219 221 223 224 223 222 220 217 218 220 220 220 220 221 223 224 227 229 227 227 229 232 234 235 236 237 238 240 241 241 242 243 245 246 245 244 244 244 247 251 256 264 271
214 224 220 216 218 219 215 214 217 218 219 218 217 217 213 209 210 213 216 218 220 223 227 228 227 225 222 219 219 220 220 220 219 220 222 224 225 228 228 228 230 233 234 233 233 235 238 239 241 242 242 243 244 245 244 243 241 241 245 249 255 264 270
131 206 213 209 211 214 212 213 217 217 219 219 218 220 218 212 211 214 216 219 223 226 229 230 231 230 227 225 222 220 220 220 220 220 220 221 223 226 228 229 231 232 232 232 234 236 238 239 240 241 240 240 241 244 246 245 241 240 243 248 256 263 264
114 166 192 199 204 208 211 217 220 219 221 221 218 221 219 215 215 217 219 222 225 228 229 229 232 233 232 231 227 223 222 222 222 221 218 219 222 224 226 228 230 231 232 234 236 237 237 236 237 238 239 240 242 245 248 247 242 240 241 247 255 260 259
105 148 176 193 200 208 215 219 221 222 226 225 221 220 218 216 218 220 222 225 227 228 227 227 230 233 235 237 235 231 228 225 225 223 220 222 226 226 225 226 229 230 232 234 235 235 234 233 235 237 239 242 244 246 247 245 241 238 239 246 252 255 254
82 155 176 189 198 208 215 214 215 220 227 228 224 222 221 219 220 223 226 228 228 228 227 227 230 234 239 241 241 238 230 224 225 226 225 227 229 228 226 227 230 230 230 235 237 234 232 232 234 236 238 241 242 244 244 242 238 236 238 243 249 251 249
322 262 195 188 199 211 215 211 211 217 223 225 225 224 223 220 221 226 232 233 232 229 226 226 231 236 237 236 234 229 224 222 223 225 226 227 227 228 228 231 234 232 230 236 239 236 232 230 230 231 234 238 241 242 241 238 234 232 234 241 247 249 246
319 305 268 194 209 216 219 212 209 216 224 226 228 226 220 218 221 226 232 234 230 227 225 226 231 234 231 225 221 219 221 222 222 223 225 228 229 230 231 233 235 233 232 234 234 233 231 228 226 229 233 236 236 235 234 233 232 229 231 236 240 243 244
320 323 327 289 241 221 223 214 205 212 226 230 231 229 223 224 230 233 237 234 227 224 225 227 230 232 229 223 221 222 224 224 222 224 226 230 231 229 229 231 231 230 230 229 228 228 228 227 227 230 233 234 231 229 228 228 227 226 227 230 233 239 245
324 328 332 315 276 231 226 222 209 213 228 231 232 233 233 242 247 244 244 240 231 227 227 227 228 230 232 231 226 225 225 223 223 225 226 228 229 226 226 227 228 229 227 224 224 226 226 228 230 230 232 231 228 225 225 224 221 222 225 227 233 240 244
329 328 333 327 305 283 291 277 246 238 243 245 251 256 262 272 271 261 253 244 238 235 230 228 229 231 233 233 228 225 224 222 222 223 222 223 227 229 229 226 224 225 224 222 225 227 226 229 231 228 226 225 222 222 224 225 223 222 226 231 237 243 245
337 328 323 319 314 313 329 342 344 351 9 313 296 290 295 296 286 278 270 255 246 242 236 232 233 234 231 226 222 220 219 218 219 219 217 220 227 230 227 220 213 212 214 216 219 220 220 224 225 219 214 213 212 215 221 224 224 224 230 236 241 245 246
350 341 324 315 325 327 325 332 335 337 357 316 293 285 294 303 296 283 272 261 251 246 242 239 239 238 233 225 218 216 218 219 216 213 212 213 216 217 211 203 196 192 194 199 200 200 204 211 212 208 208 210 211 212 217 220 223 228 233 238 240 242 244
0 356 341 329 334 335 329 327 326 328 354 328 292 284 277 293 303 291 272 258 250 242 239 241 241 239 233 226 219 215 215 212 207 203 202 200 198 196 190 182 178 179 186 190 187 189 194 199 199 197 201 207 210 213 218 221 224 228 231 233 237 240 245
355 356 355 349 343 338 332 325 321 329 358 311 268 267 253 248 284 293 279 260 245 236 232 235 238 235 231 225 218 212 208 203 198 195 194 191 187 183 181 180 179 181 184 179 174 177 182 185 188 191 197 203 207 210 214 217 221 227 231 235 240 246 251
345 346 351 354 351 346 334 319 316 326 11 216 229 230 228 226 237 268 275 263 247 234 228 229 231 229 228 224 217 210 204 198 195 193 190 188 184 179 180 181 180 179 179 175 173 176 184 193 201 206 211 215 217 215 215 219 226 234 241 247 253 259 264
345 345 347 348 348 348 339 317 311 311 180 173 206 219 220 219 218 232 258 260 249 236 228 226 227 227 225 221 215 210 204 198 197 194 189 186 183 179 179 179 177 178 179 180 182 186 197 211 218 224 228 229 230 227 224 228 235 241 249 256 261 267 271
350 351 351 348 346 346 343 326 304 299 249 164 185 214 225 224 220 226 246 257 250 239 230 227 227 226 221 216 213 211 206 202 201 197 191 188 188 187 186 183 183 185 188 193 201 207 216 225 229 232 236 237 237 236 235 238 242 248 254 261 266 271 275
353 352 350 353 353 348 342 330 294 281 275 191 183 195 224 242 237 230 237 251 249 237 230 228 226 222 217 212 211 213 212 209 206 201 196 194 192 192 191 189 189 193 199 207 216 222 230 236 237 236 237 239 241 242 243 245 248 253 259 267 273 277 278
357 355 349 354 356 349 341 334 294 246 253 230 200 187 202 242 252 241 232 242 245 236 227 224 221 216 212 211 212 216 217 214 208 202 199 199 196 193 193 196 199 205 211 217 225 232 234 233 233 231 231 234 239 242 244 248 253 259 265 272 277 279 279
353 354 348 350 351 348 345 341 312 225 219 227 211 189 190 219 245 247 236 232 236 233 226 221 217 212 211 212 214 217 217 213 209 205 201 200 200 198 197 202 210 218 222 226 234 239 234 228 226 225 226 233 241 248 256 263 269 271 271 273 276 279 280
343 342 341 344 346 346 347 354 355 322 195 197 189 184 203 220 235 247 242 234 231 230 227 221 216 213 213 214 214 215 214 211 209 209 207 205 205 205 206 209 215 221 226 231 237 237 232 229 227 226 231 241 250 258 266 273 278 280 278 278 283 288 281
344 337 334 337 342 345 348 349 353 5 113 153 154 172 206 220 223 233 239 239 235 230 224 219 216 215 216 216 215 212 211 210 209 210 212 211 209 210 211 213 216 220 226 235 240 234 229 228 228 229 235 242 249 255 262 270 280 290 294 298 303 301 277
344 339 335 331 334 345 349 345 345 9 81 128 155 182 202 214 218 223 228 232 232 228 220 216 215 216 218 218 217 215 211 210 209 209 212 214 213 212 213 214 218 224 230 236 237 229 224 225 226 227 230 235 242 249 257 273 295 302 300 301 302 295 254
342 342 342 336 330 337 341 339 346 7 91 146 160 178 198 213 223 226 226 229 229 224 219 218 218 219 221 220 219 219 217 214 213 211 211 212 212 212 216 219 220 224 226 227 224 219 217 219 220 220 222 227 236 245 252 280 314 312 300 292 290 285 241
337 339 347 342 335 335 329 322 331 351 19 160 167 179 198 215 226 229 231 236 233 220 214 220 223 222 224 224 222 222 222 221 220 216 213 211 208 207 208 207 205 206 209 213 216 211 207 207 207 210 216 217 215 212 206 1 354 333 306 284 272 258 225
331 331 342 342 336 337 333 313 308 316 334 350 188 201 212 218 225 229 230 235 234 220 211 216 220 218 222 225 223 222 222 223 224 221 219 217 214 210 202 186 175 175 177 178 184 186 184 185 184 185 188 183 175 172 168 124 44 18 343 305 288 254 188
323 321 322 328 329 333 337 320 297 290 296 314 322 305 267 231 228 234 230 228 227 220 213 213 215 215 218 220 219 221 224 226 227 229 229 227 223 218 205 180 163 159 156 151 148 144 142 147 153 156 158 157 158 164 163 131 81 39 3 349 355 14 141
316 317 306 304 318 326 329 323 303 285 280 284 292 304 307 282 250 249 243 234 227 219 210 208 211 213 217 218 218 221 224 227 229 232 235 233 227 222 213 194 176 163 153 147 147 144 140 140 139 135 143 155 161 164 160 143 111 25 350 346 347 341 307
314 318 305 288 300 317 319 317 312 297 281 272 269 275 288 295 286 273 262 252 241 225 209 204 206 210 216 220 223 224 227 229 230 232 236 238 238 237 233 219 201 183 168 158 154 153 153 153 148 141 154 174 185 193 197 200 216 267 308 327 332 322 299
308 316 306 286 292 307 311 311 311 304 290 275 266 266 271 273 272 277 277 268 259 244 221 207 204 207 214 222 228 230 230 232 232 233 236 240 244 247 249 246 239 225 206 193 184 178 176 178 181 189 211 226 236 240 241 247 255 266 284 303 316 312 294